This is the latest recevied weather packets stored in our database for station/object KD4MBW. If no packets are shown the sender has not sent any weather packets the latest 10 day(s).
| Time | Temp. | Humidity | Pressure | Rain* | Wind** | Luminosity | Snow |
|---|---|---|---|---|---|---|---|
| 1787415422 | 31.67° C | 73% | 1015.8 hPa | 0 mm | - | 749 W/m² | - |
| 1787415117 | 32.22° C | 74% | 1015.9 hPa | 0 mm | - | 260 W/m² | - |
| 1787414813 | 31.67° C | 79% | 1015.9 hPa | 0 mm | - | 762 W/m² | - |
| 1787414508 | 31.67° C | 80% | 1015.9 hPa | 0 mm | - | 568 W/m² | - |
| 1787414207 | 31.67° C | 78% | 1015.8 hPa | 0 mm | - | 516 W/m² | - |
| 1787413906 | 31.67° C | 77% | 1016.2 hPa | 0 mm | - | 196 W/m² | - |
| 1787413602 | 32.22° C | 75% | 1016 hPa | 0 mm | - | 709 W/m² | - |
| 1787413301 | 31.67° C | 78% | 1016.2 hPa | 0 mm | - | 676 W/m² | - |
| 1787412997 | 31.67° C | 78% | 1016.1 hPa | 0 mm | - | 674 W/m² | - |
| 1787412692 | 31.67° C | 78% | 1016.3 hPa | 0 mm | - | 618 W/m² | - |
| 1787412387 | 31.67° C | 80% | 1016.2 hPa | 0 mm | - | 694 W/m² | - |
| 1787412083 | 31.67° C | 79% | 1016.3 hPa | 0 mm | - | 664 W/m² | - |
| 1787411780 | 31.11° C | 81% | 1016.4 hPa | 0 mm | - | 623 W/m² | - |
| 1787411475 | 31.11° C | 82% | 1016.4 hPa | 0 mm | - | 608 W/m² | - |
| 1787411171 | 31.11° C | 81% | 1016.5 hPa | 0 mm | - | 604 W/m² | - |
| 1787410867 | 31.11° C | 83% | 1016.3 hPa | 0 mm | - | 612 W/m² | - |
| 1787410563 | 30.56° C | 85% | 1016.3 hPa | 0 mm | - | 445 W/m² | - |
| 1787410257 | 31.11° C | 84% | 1016.5 hPa | 0 mm | - | 361 W/m² | - |
| 1787409954 | 30.56° C | 88% | 1016.5 hPa | 0 mm | - | 621 W/m² | - |
| 1787409649 | 30.56° C | 88% | 1016.2 hPa | 0 mm | - | 412 W/m² | - |
| 1787409345 | 30.56° C | 90% | 1016.4 hPa | 0 mm | - | 564 W/m² | - |
| 1787409041 | 30.56° C | 89% | 1016.3 hPa | 0 mm | - | 427 W/m² | - |
| 1787408736 | 30° C | 89% | 1016.4 hPa | 0 mm | - | 234 W/m² | - |
| 1787408431 | 30° C | 90% | 1016.4 hPa | 0 mm | - | 194 W/m² | - |
| 1787408127 | 30° C | 91% | 1016.1 hPa | 0 mm | - | 137 W/m² | - |
* Rain latest hour (hover to see other rain measurements)
** Current wind speed in m/s (hover to see current wind gust speed)